Time,TemperatureF,DewpointF,PressureIn,WindDirection,WindDirectionDegrees,WindSpeedMPH,WindSpeedGustMPH,Humidity,HourlyPrecipIn,Conditions,Clouds,dailyrainin,SoftwareType,DateUTC
2013-10-22 00:02:00,57.4,38.9,29.87,South,188,1.0,5.0,50,0.00,,,0.00,Wunderground v.1.15,2013-10-22 04:02:00,
2013-10-22 00:06:00,57.4,38.9,29.86,SW,219,2.0,8.0,50,0.00,,,0.00,Wunderground v.1.15,2013-10-22 04:06:00,
2013-10-22 00:08:00,57.3,38.8,29.87,SW,233,2.0,8.0,50,0.00,,,0.00,Wunderground v.1.15,2013-10-22 04:08:00,
2013-10-22 00:10:00,57.3,38.8,29.86,SSW,192,2.0,8.0,50,0.00,,,0.00,Wunderground v.1.15,2013-10-22 04:10:00,
2013-10-22 00:14:00,57.4,38.9,29.86,WNW,285,2.0,4.0,50,0.00,,,0.00,Wunderground v.1.15,2013-10-22 04:14:00,
2013-10-22 00:20:00,57.4,38.9,29.86,WSW,249,2.0,4.0,50,0.00,,,0.00,Wunderground v.1.15,2013-10-22 04:20:00,
2013-10-22 00:26:00,57.2,39.2,29.86,SSW,205,2.0,6.0,51,0.00,,,0.00,Wunderground v.1.15,2013-10-22 04:26:00,
2013-10-22 00:32:00,57.1,39.1,29.86,SSW,200,2.0,4.0,51,0.00,,,0.00,Wunderground v.1.15,2013-10-22 04:32:00,
2013-10-22 00:38:00,57.2,39.2,29.86,South,185,2.0,6.0,51,0.00,,,0.00,Wunderground v.1.15,2013-10-22 04:38:00,
2013-10-22 00:44:00,57.2,39.2,29.86,WSW,242,2.0,3.0,51,0.00,,,0.00,Wunderground v.1.15,2013-10-22 04:44:00,
2013-10-22 00:50:00,57.2,39.2,29.86,West,271,1.0,3.0,51,0.00,,,0.00,Wunderground v.1.15,2013-10-22 04:50:00,
2013-10-22 00:56:00,57.1,39.1,29.86,SE,128,1.0,2.0,51,0.00,,,0.00,Wunderground v.1.15,2013-10-22 04:56:00,
2013-10-22 01:01:00,57.3,39.3,29.86,South,186,2.0,7.0,51,0.00,,,0.00,Wunderground v.1.15,2013-10-22 05:01:00,
2013-10-22 01:07:00,57.4,39.4,29.86,SSW,192,2.0,7.0,51,0.00,,,0.00,Wunderground v.1.15,2013-10-22 05:07:00,
2013-10-22 01:13:00,57.5,40.0,29.85,South,186,2.0,4.0,52,0.00,,,0.00,Wunderground v.1.15,2013-10-22 05:13:00,
2013-10-22 01:19:00,57.5,40.0,29.85,SSW,197,3.0,4.0,52,0.00,,,0.00,Wunderground v.1.15,2013-10-22 05:19:00,
2013-10-22 01:25:00,57.6,40.1,29.86,SW,229,3.0,7.0,52,0.00,,,0.00,Wunderground v.1.15,2013-10-22 05:25:00,
2013-10-22 01:31:00,57.5,40.0,29.85,SSE,166,3.0,3.0,52,0.00,,,0.00,Wunderground v.1.15,2013-10-22 05:31:00,
2013-10-22 01:36:00,57.4,39.9,29.85,West,261,3.0,5.0,52,0.00,,,0.00,Wunderground v.1.15,2013-10-22 05:36:00,
2013-10-22 01:42:00,57.2,40.2,29.85,South,175,3.0,3.0,53,0.00,,,0.00,Wunderground v.1.15,2013-10-22 05:42:00,
2013-10-22 01:48:00,57.2,40.7,29.85,SSE,158,2.0,3.0,54,0.00,,,0.00,Wunderground v.1.15,2013-10-22 05:48:00,
2013-10-22 01:53:00,57.2,40.2,29.86,South,178,2.0,6.0,53,0.00,,,0.00,Wunderground v.1.15,2013-10-22 05:53:00,
2013-10-22 01:59:00,57.0,40.5,29.85,SW,219,3.0,6.0,54,0.00,,,0.00,Wunderground v.1.15,2013-10-22 05:59:00,
2013-10-22 02:05:00,56.9,40.4,29.85,SW,230,3.0,4.0,54,0.00,,,0.00,Wunderground v.1.15,2013-10-22 06:05:00,
2013-10-22 02:11:00,56.7,40.7,29.85,WSW,238,3.0,3.0,55,0.00,,,0.00,Wunderground v.1.15,2013-10-22 06:11:00,
2013-10-22 02:17:00,56.4,40.4,29.85,SSW,197,2.0,6.0,55,0.00,,,0.00,Wunderground v.1.15,2013-10-22 06:17:00,
2013-10-22 02:23:00,56.2,40.7,29.85,SW,236,2.0,6.0,56,0.00,,,0.00,Wunderground v.1.15,2013-10-22 06:23:00,
2013-10-22 02:29:00,56.1,40.6,29.85,South,178,2.0,9.0,56,0.00,,,0.00,Wunderground v.1.15,2013-10-22 06:29:00,
2013-10-22 02:34:00,55.9,40.9,29.85,SW,236,2.0,8.0,57,0.00,,,0.00,Wunderground v.1.15,2013-10-22 06:34:00,
2013-10-22 02:40:00,55.8,40.3,29.85,South,178,1.0,1.0,56,0.00,,,0.00,Wunderground v.1.15,2013-10-22 06:40:00,
2013-10-22 02:46:00,55.7,40.7,29.85,SSW,213,2.0,3.0,57,0.00,,,0.00,Wunderground v.1.15,2013-10-22 06:46:00,
2013-10-22 02:52:00,55.7,40.7,29.85,WSW,257,3.0,3.0,57,0.00,,,0.00,Wunderground v.1.15,2013-10-22 06:52:00,
2013-10-22 02:58:00,55.7,40.7,29.84,SSE,156,3.0,5.0,57,0.00,,,0.00,Wunderground v.1.15,2013-10-22 06:58:00,
2013-10-22 03:04:00,55.7,41.1,29.84,West,279,2.0,3.0,58,0.00,,,0.00,Wunderground v.1.15,2013-10-22 07:04:00,
2013-10-22 03:10:00,55.6,41.0,29.84,North,355,2.0,5.0,58,0.00,,,0.00,Wunderground v.1.15,2013-10-22 07:10:00,
2013-10-22 03:16:00,55.5,41.0,29.84,SSW,194,3.0,7.0,58,0.00,,,0.00,Wunderground v.1.15,2013-10-22 07:16:00,
2013-10-22 03:21:00,55.5,41.0,29.84,ESE,123,3.0,4.0,58,0.00,,,0.00,Wunderground v.1.15,2013-10-22 07:21:00,
2013-10-22 03:27:00,55.4,41.3,29.84,SW,223,2.0,10.0,59,0.00,,,0.00,Wunderground v.1.15,2013-10-22 07:27:00,
2013-10-22 03:33:00,55.3,41.2,29.83,SW,216,2.0,6.0,59,0.00,,,0.00,Wunderground v.1.15,2013-10-22 07:33:00,
2013-10-22 03:39:00,55.2,41.1,29.84,South,189,2.0,8.0,59,0.00,,,0.00,Wunderground v.1.15,2013-10-22 07:39:00,
2013-10-22 03:45:00,55.2,41.1,29.83,WNW,286,3.0,5.0,59,0.00,,,0.00,Wunderground v.1.15,2013-10-22 07:45:00,
2013-10-22 03:51:00,55.1,41.5,29.83,SW,223,2.0,2.0,60,0.00,,,0.00,Wunderground v.1.15,2013-10-22 07:51:00,
2013-10-22 03:57:00,55.0,41.8,29.83,SW,234,3.0,6.0,61,0.00,,,0.00,Wunderground v.1.15,2013-10-22 07:57:00,
2013-10-22 04:02:00,54.8,41.6,29.83,SE,146,3.0,3.0,61,0.00,,,0.00,Wunderground v.1.15,2013-10-22 08:02:00,
2013-10-22 04:08:00,54.7,41.5,29.83,SW,219,3.0,7.0,61,0.00,,,0.00,Wunderground v.1.15,2013-10-22 08:08:00,
2013-10-22 04:14:00,54.6,42.3,29.83,SSW,198,4.0,7.0,63,0.00,,,0.00,Wunderground v.1.15,2013-10-22 08:14:00,
2013-10-22 04:20:00,54.5,41.7,29.83,WSW,252,3.0,3.0,62,0.00,,,0.00,Wunderground v.1.15,2013-10-22 08:20:00,
2013-10-22 04:26:00,54.4,42.1,29.83,SSW,211,3.0,8.0,63,0.00,,,0.00,Wunderground v.1.15,2013-10-22 08:26:00,
2013-10-22 04:32:00,54.3,42.0,29.83,SW,234,3.0,6.0,63,0.00,,,0.00,Wunderground v.1.15,2013-10-22 08:32:00,
2013-10-22 04:38:00,54.2,42.3,29.83,SW,236,2.0,6.0,64,0.00,,,0.00,Wunderground v.1.15,2013-10-22 08:38:00,
2013-10-22 04:44:00,54.2,41.9,29.82,SW,235,3.0,5.0,63,0.00,,,0.00,Wunderground v.1.15,2013-10-22 08:44:00,
2013-10-22 04:49:00,54.1,42.2,29.82,NE,34,3.0,5.0,64,0.00,,,0.00,Wunderground v.1.15,2013-10-22 08:49:00,
2013-10-22 04:55:00,54.1,42.2,29.83,SW,232,3.0,12.0,64,0.00,,,0.00,Wunderground v.1.15,2013-10-22 08:55:00,
2013-10-22 05:01:00,54.0,42.1,29.83,South,186,2.0,2.0,64,0.00,,,0.00,Wunderground v.1.15,2013-10-22 09:01:00,
2013-10-22 05:07:00,53.9,42.4,29.83,SE,139,2.0,8.0,65,0.00,,,0.00,Wunderground v.1.15,2013-10-22 09:07:00,
2013-10-22 05:13:00,53.9,42.4,29.83,NW,317,3.0,3.0,65,0.00,,,0.00,Wunderground v.1.15,2013-10-22 09:13:00,
2013-10-22 05:19:00,53.7,42.6,29.83,SW,226,2.0,4.0,66,0.00,,,0.00,Wunderground v.1.15,2013-10-22 09:19:00,
2013-10-22 05:25:00,53.4,42.3,29.83,SSW,203,3.0,5.0,66,0.00,,,0.00,Wunderground v.1.15,2013-10-22 09:25:00,
2013-10-22 05:31:00,53.2,42.9,29.83,West,269,2.0,3.0,68,0.00,,,0.00,Wunderground v.1.15,2013-10-22 09:31:00,
2013-10-22 05:36:00,53.0,42.7,29.83,SW,227,2.0,4.0,68,0.00,,,0.00,Wunderground v.1.15,2013-10-22 09:36:00,
2013-10-22 05:42:00,52.8,43.3,29.83,SSE,161,1.0,2.0,70,0.00,,,0.00,Wunderground v.1.15,2013-10-22 09:42:00,
2013-10-22 05:48:00,52.4,43.3,29.83,WNW,302,2.0,6.0,71,0.00,,,0.00,Wunderground v.1.15,2013-10-22 09:48:00,
2013-10-22 05:54:00,52.1,43.7,29.84,WNW,294,2.0,4.0,73,0.00,,,0.00,Wunderground v.1.15,2013-10-22 09:54:00,
2013-10-22 06:00:00,51.8,43.8,29.84,SSE,162,1.0,2.0,74,0.00,,,0.00,Wunderground v.1.15,2013-10-22 10:00:00,
2013-10-22 06:06:00,51.5,44.2,29.84,WNW,302,1.0,2.0,76,0.00,,,0.00,Wunderground v.1.15,2013-10-22 10:06:00,
2013-10-22 06:12:00,51.2,44.2,29.84,NE,38,1.0,4.0,77,0.00,,,0.00,Wunderground v.1.15,2013-10-22 10:12:00,
2013-10-22 06:17:00,50.8,44.5,29.84,West,261,1.0,4.0,79,0.00,,,0.00,Wunderground v.1.15,2013-10-22 10:17:00,
2013-10-22 06:23:00,50.5,44.9,29.85,WNW,290,1.0,2.0,81,0.00,,,0.00,Wunderground v.1.15,2013-10-22 10:23:00,
2013-10-22 06:29:00,50.0,45.0,29.85,North,355,1.0,4.0,83,0.00,,,0.00,Wunderground v.1.15,2013-10-22 10:29:00,
2013-10-22 06:35:00,49.6,45.3,29.86,WSW,245,1.0,5.0,85,0.00,,,0.01,Wunderground v.1.15,2013-10-22 10:35:00,
2013-10-22 06:41:00,49.1,45.4,29.85,WNW,298,1.0,1.0,87,0.11,,,0.02,Wunderground v.1.15,2013-10-22 10:41:00,
2013-10-22 06:47:00,48.6,45.5,29.85,East,98,1.0,3.0,89,0.06,,,0.03,Wunderground v.1.15,2013-10-22 10:47:00,
2013-10-22 06:53:00,48.2,45.4,29.85,NW,308,0.0,3.0,90,0.12,,,0.04,Wunderground v.1.15,2013-10-22 10:53:00,
2013-10-22 06:59:00,47.9,45.4,29.85,West,262,0.0,3.0,91,0.07,,,0.04,Wunderground v.1.15,2013-10-22 10:59:00,
2013-10-22 07:04:00,47.7,45.5,29.85,West,272,0.0,0.0,92,0.04,,,0.04,Wunderground v.1.15,2013-10-22 11:04:00,
2013-10-22 07:10:00,47.6,46.0,29.85,NE,56,0.0,1.0,94,0.00,,,0.05,Wunderground v.1.15,2013-10-22 11:10:00,
2013-10-22 07:16:00,47.4,45.8,29.84,NE,56,0.0,1.0,94,0.00,,,0.05,Wunderground v.1.15,2013-10-22 11:16:00,
2013-10-22 07:22:00,47.2,45.6,29.84,West,261,0.0,0.0,94,0.07,,,0.06,Wunderground v.1.15,2013-10-22 11:22:00,
2013-10-22 07:28:00,47.2,45.8,29.86,NNE,19,0.0,1.0,95,0.06,,,0.06,Wunderground v.1.15,2013-10-22 11:28:00,
2013-10-22 07:34:00,46.7,45.3,29.86,West,276,1.0,3.0,95,0.20,,,0.08,Wunderground v.1.15,2013-10-22 11:34:00,
2013-10-22 07:40:00,45.7,44.1,29.86,WNW,300,1.0,1.0,94,0.10,,,0.09,Wunderground v.1.15,2013-10-22 11:40:00,
2013-10-22 07:46:00,45.1,43.8,29.86,North,360,1.0,4.0,95,0.12,,,0.10,Wunderground v.1.15,2013-10-22 11:46:00,
2013-10-22 07:52:00,44.9,43.6,29.87,North,360,0.0,2.0,95,0.06,,,0.10,Wunderground v.1.15,2013-10-22 11:52:00,
2013-10-22 07:57:00,44.7,43.4,29.87,NNW,336,0.0,2.0,95,0.17,,,0.12,Wunderground v.1.15,2013-10-22 11:57:00,
2013-10-22 08:03:00,44.5,43.4,29.86,NW,311,0.0,0.0,96,0.09,,,0.12,Wunderground v.1.15,2013-10-22 12:03:00,
2013-10-22 08:09:00,44.4,43.3,29.87,NW,315,0.0,0.0,96,0.14,,,0.14,Wunderground v.1.15,2013-10-22 12:09:00,
2013-10-22 08:15:00,44.4,43.3,29.87,NW,315,0.0,0.0,96,0.12,,,0.15,Wunderground v.1.15,2013-10-22 12:15:00,
2013-10-22 08:21:00,44.2,43.1,29.87,West,279,0.0,1.0,96,0.12,,,0.16,Wunderground v.1.15,2013-10-22 12:21:00,
2013-10-22 08:27:00,44.0,43.2,29.88,WSW,252,0.0,4.0,97,0.07,,,0.17,Wunderground v.1.15,2013-10-22 12:27:00,
2013-10-22 08:33:00,43.7,42.6,29.88,NNE,18,0.0,3.0,96,0.12,,,0.18,Wunderground v.1.15,2013-10-22 12:33:00,
2013-10-22 08:38:00,43.6,42.8,29.89,NNW,327,0.0,3.0,97,0.21,,,0.20,Wunderground v.1.15,2013-10-22 12:38:00,
2013-10-22 08:44:00,43.3,42.5,29.89,NNW,343,1.0,3.0,97,0.25,,,0.22,Wunderground v.1.15,2013-10-22 12:44:00,
2013-10-22 08:50:00,43.0,42.2,29.90,NNE,24,1.0,1.0,97,0.30,,,0.24,Wunderground v.1.15,2013-10-22 12:50:00,
2013-10-22 08:56:00,42.7,41.9,29.89,NW,304,1.0,8.0,97,0.26,,,0.26,Wunderground v.1.15,2013-10-22 12:56:00,
2013-10-22 09:02:00,42.2,41.4,29.90,NE,34,2.0,2.0,97,0.09,,,0.26,Wunderground v.1.15,2013-10-22 13:02:00,
2013-10-22 09:08:00,41.9,41.1,29.90,WNW,301,1.0,2.0,97,0.08,,,0.27,Wunderground v.1.15,2013-10-22 13:08:00,
2013-10-22 09:14:00,41.7,40.9,29.90,West,267,1.0,2.0,97,0.05,,,0.27,Wunderground v.1.15,2013-10-22 13:14:00,
2013-10-22 09:19:00,41.8,41.0,29.90,NNW,329,1.0,2.0,97,0.05,,,0.28,Wunderground v.1.15,2013-10-22 13:19:00,
2013-10-22 09:25:00,41.8,41.0,29.90,NNE,16,0.0,0.0,97,0.05,,,0.28,Wunderground v.1.15,2013-10-22 13:25:00,
2013-10-22 09:30:00,41.5,40.7,29.91,NNW,338,0.0,0.0,97,0.04,,,0.28,Wunderground v.1.15,2013-10-22 13:30:00,
2013-10-22 09:36:00,41.2,40.4,29.91,NNE,27,1.0,1.0,97,0.00,,,0.29,Wunderground v.1.15,2013-10-22 13:36:00,
2013-10-22 09:42:00,40.7,39.9,29.92,NW,323,1.0,3.0,97,0.14,,,0.30,Wunderground v.1.15,2013-10-22 13:42:00,
2013-10-22 09:48:00,40.3,39.5,29.92,NNE,28,2.0,4.0,97,0.10,,,0.31,Wunderground v.1.15,2013-10-22 13:48:00,
2013-10-22 09:54:00,39.9,39.1,29.92,NNW,344,1.0,4.0,97,0.13,,,0.32,Wunderground v.1.15,2013-10-22 13:54:00,
2013-10-22 10:00:00,39.5,38.7,29.92,NW,314,1.0,1.0,97,0.06,,,0.32,Wunderground v.1.15,2013-10-22 14:00:00,
2013-10-22 10:05:00,39.4,38.6,29.93,WNW,285,1.0,1.0,97,0.04,,,0.33,Wunderground v.1.15,2013-10-22 14:05:00,
2013-10-22 10:11:00,39.5,38.7,29.93,West,278,0.0,1.0,97,0.04,,,0.33,Wunderground v.1.15,2013-10-22 14:11:00,
2013-10-22 10:17:00,39.3,38.5,29.93,SW,214,1.0,3.0,97,0.04,,,0.33,Wunderground v.1.15,2013-10-22 14:17:00,
2013-10-22 10:23:00,39.0,38.2,29.93,North,350,1.0,2.0,97,0.00,,,0.33,Wunderground v.1.15,2013-10-22 14:23:00,
2013-10-22 10:29:00,38.7,37.9,29.93,North,355,2.0,2.0,97,0.00,,,0.33,Wunderground v.1.15,2013-10-22 14:29:00,
2013-10-22 10:35:00,38.6,37.8,29.93,North,5,1.0,2.0,97,0.00,,,0.33,Wunderground v.1.15,2013-10-22 14:35:00,
2013-10-22 10:41:00,38.6,37.8,29.93,NE,43,0.0,0.0,97,0.00,,,0.33,Wunderground v.1.15,2013-10-22 14:41:00,
2013-10-22 10:47:00,38.5,37.7,29.93,NE,34,0.0,0.0,97,0.00,,,0.33,Wunderground v.1.15,2013-10-22 14:47:00,
2013-10-22 10:53:00,38.4,37.6,29.93,WSW,246,0.0,0.0,97,0.00,,,0.33,Wunderground v.1.15,2013-10-22 14:53:00,
2013-10-22 10:58:00,38.4,37.6,29.92,West,259,0.0,0.0,97,0.00,,,0.33,Wunderground v.1.15,2013-10-22 14:58:00,
2013-10-22 11:04:00,38.6,37.8,29.92,WNW,286,0.0,0.0,97,0.00,,,0.33,Wunderground v.1.15,2013-10-22 15:04:00,
2013-10-22 11:10:00,38.7,38.2,29.92,WSW,248,0.0,0.0,98,0.00,,,0.33,Wunderground v.1.15,2013-10-22 15:10:00,
2013-10-22 11:16:00,38.9,38.4,29.92,NW,313,0.0,1.0,98,0.00,,,0.33,Wunderground v.1.15,2013-10-22 15:16:00,
2013-10-22 11:22:00,39.2,38.7,29.92,NW,313,0.0,0.0,98,0.00,,,0.33,Wunderground v.1.15,2013-10-22 15:22:00,
2013-10-22 11:28:00,39.1,38.6,29.92,WSW,252,0.0,2.0,98,0.00,,,0.33,Wunderground v.1.15,2013-10-22 15:28:00,
2013-10-22 11:34:00,39.2,38.7,29.91,WNW,284,0.0,1.0,98,0.00,,,0.33,Wunderground v.1.15,2013-10-22 15:34:00,
2013-10-22 11:40:00,39.3,38.8,29.91,SW,219,0.0,0.0,98,0.00,,,0.33,Wunderground v.1.15,2013-10-22 15:40:00,
2013-10-22 11:45:00,39.7,39.2,29.92,NNW,336,0.0,2.0,98,0.00,,,0.33,Wunderground v.1.15,2013-10-22 15:45:00,
2013-10-22 11:51:00,39.8,39.3,29.91,SSW,197,0.0,0.0,98,0.00,,,0.33,Wunderground v.1.15,2013-10-22 15:51:00,
2013-10-22 11:56:00,40.0,39.5,29.92,SSE,159,0.0,1.0,98,0.00,,,0.33,Wunderground v.1.15,2013-10-22 15:56:00,
2013-10-22 12:02:00,40.5,40.0,29.92,WNW,295,1.0,2.0,98,0.00,,,0.33,Wunderground v.1.15,2013-10-22 16:02:00,
2013-10-22 12:08:00,41.0,40.5,29.92,West,259,1.0,4.0,98,0.00,,,0.33,Wunderground v.1.15,2013-10-22 16:08:00,
2013-10-22 12:14:00,41.6,40.3,29.92,SW,220,2.0,3.0,95,0.00,,,0.33,Wunderground v.1.15,2013-10-22 16:14:00,
2013-10-22 12:20:00,41.8,39.6,29.92,SSW,212,1.0,1.0,92,0.00,,,0.33,Wunderground v.1.15,2013-10-22 16:20:00,
2013-10-22 12:26:00,41.6,39.4,29.92,WNW,289,1.0,2.0,92,0.00,,,0.33,Wunderground v.1.15,2013-10-22 16:26:00,
2013-10-22 12:32:00,41.7,39.3,29.92,South,182,1.0,3.0,91,0.00,,,0.34,Wunderground v.1.15,2013-10-22 16:32:00,
2013-10-22 12:38:00,41.8,39.9,29.92,South,182,1.0,3.0,93,0.00,,,0.34,Wunderground v.1.15,2013-10-22 16:38:00,
2013-10-22 12:43:00,42.1,40.2,29.91,WSW,258,0.0,1.0,93,0.00,,,0.34,Wunderground v.1.15,2013-10-22 16:43:00,
2013-10-22 12:49:00,42.4,40.0,29.91,NE,42,0.0,2.0,91,0.00,,,0.34,Wunderground v.1.15,2013-10-22 16:49:00,
2013-10-22 12:55:00,42.9,39.6,29.91,SW,227,1.0,3.0,88,0.00,,,0.34,Wunderground v.1.15,2013-10-22 16:55:00,
2013-10-22 13:01:00,43.3,40.0,29.91,WSW,258,1.0,3.0,88,0.00,,,0.34,Wunderground v.1.15,2013-10-22 17:01:00,
2013-10-22 13:07:00,43.4,38.9,29.91,West,271,0.0,3.0,84,0.00,,,0.34,Wunderground v.1.15,2013-10-22 17:07:00,
2013-10-22 13:13:00,43.6,38.8,29.91,SSW,213,1.0,2.0,83,0.00,,,0.34,Wunderground v.1.15,2013-10-22 17:13:00,
2013-10-22 13:19:00,43.8,38.7,29.90,SW,225,1.0,3.0,82,0.00,,,0.34,Wunderground v.1.15,2013-10-22 17:19:00,
2013-10-22 13:25:00,44.2,38.4,29.90,West,263,1.0,4.0,80,0.00,,,0.34,Wunderground v.1.15,2013-10-22 17:25:00,
2013-10-22 13:30:00,44.6,38.8,29.90,NNW,340,0.0,1.0,80,0.00,,,0.34,Wunderground v.1.15,2013-10-22 17:30:00,
2013-10-22 13:36:00,44.7,38.3,29.90,North,11,1.0,3.0,78,0.00,,,0.34,Wunderground v.1.15,2013-10-22 17:36:00,
2013-10-22 13:42:00,44.7,38.9,29.89,WSW,242,0.0,1.0,80,0.00,,,0.34,Wunderground v.1.15,2013-10-22 17:42:00,
2013-10-22 13:48:00,45.2,38.7,29.89,SW,221,0.0,2.0,78,0.00,,,0.34,Wunderground v.1.15,2013-10-22 17:48:00,
2013-10-22 13:54:00,46.0,39.5,29.89,SSW,211,1.0,3.0,78,0.00,,,0.34,Wunderground v.1.15,2013-10-22 17:54:00,
2013-10-22 14:00:00,45.9,38.4,29.88,SW,214,1.0,1.0,75,0.00,,,0.34,Wunderground v.1.15,2013-10-22 18:00:00,
2013-10-22 14:06:00,45.7,37.9,29.88,SW,214,1.0,3.0,74,0.00,,,0.34,Wunderground v.1.15,2013-10-22 18:06:00,
2013-10-22 14:11:00,46.0,38.5,29.88,NW,315,1.0,4.0,75,0.00,,,0.34,Wunderground v.1.15,2013-10-22 18:11:00,
2013-10-22 14:17:00,46.7,38.5,29.87,West,262,1.0,4.0,73,0.00,,,0.34,Wunderground v.1.15,2013-10-22 18:17:00,
2013-10-22 14:23:00,46.6,38.1,29.87,East,94,1.0,2.0,72,0.00,,,0.34,Wunderground v.1.15,2013-10-22 18:23:00,
2013-10-22 14:29:00,46.9,37.6,29.87,North,355,1.0,3.0,70,0.00,,,0.34,Wunderground v.1.15,2013-10-22 18:29:00,
2013-10-22 14:35:00,47.2,38.3,29.87,SW,231,1.0,3.0,71,0.00,,,0.34,Wunderground v.1.15,2013-10-22 18:35:00,
2013-10-22 14:41:00,47.7,38.4,29.87,SE,134,2.0,2.0,70,0.00,,,0.34,Wunderground v.1.15,2013-10-22 18:41:00,
2013-10-22 14:47:00,47.7,37.3,29.87,West,269,1.0,4.0,67,0.00,,,0.34,Wunderground v.1.15,2013-10-22 18:47:00,
2013-10-22 14:52:00,47.7,37.7,29.87,SSW,205,2.0,5.0,68,0.00,,,0.34,Wunderground v.1.15,2013-10-22 18:52:00,
2013-10-22 14:58:00,47.3,36.9,29.87,SSW,193,3.0,7.0,67,0.00,,,0.34,Wunderground v.1.15,2013-10-22 18:58:00,
2013-10-22 15:04:00,47.7,37.7,29.86,South,184,2.0,6.0,68,0.00,,,0.34,Wunderground v.1.15,2013-10-22 19:04:00,
2013-10-22 15:10:00,47.8,37.0,29.86,West,271,2.0,2.0,66,0.00,,,0.34,Wunderground v.1.15,2013-10-22 19:10:00,
2013-10-22 15:16:00,48.3,37.5,29.86,SSE,148,2.0,3.0,66,0.00,,,0.34,Wunderground v.1.15,2013-10-22 19:16:00,
2013-10-22 15:22:00,48.3,37.1,29.86,SW,233,1.0,1.0,65,0.00,,,0.34,Wunderground v.1.15,2013-10-22 19:22:00,
2013-10-22 15:28:00,48.6,36.6,29.86,WSW,237,1.0,6.0,63,0.00,,,0.34,Wunderground v.1.15,2013-10-22 19:28:00,
2013-10-22 15:34:00,48.8,37.9,29.86,NNW,333,2.0,3.0,66,0.00,,,0.34,Wunderground v.1.15,2013-10-22 19:34:00,
2013-10-22 15:40:00,48.9,38.4,29.86,SW,234,1.0,1.0,67,0.00,,,0.34,Wunderground v.1.15,2013-10-22 19:40:00,
2013-10-22 15:46:00,49.2,36.3,29.86,West,279,1.0,2.0,61,0.00,,,0.34,Wunderground v.1.15,2013-10-22 19:46:00,
2013-10-22 15:51:00,49.1,36.2,29.86,WSW,256,1.0,3.0,61,0.00,,,0.34,Wunderground v.1.15,2013-10-22 19:51:00,
2013-10-22 15:57:00,49.0,36.5,29.86,SW,220,1.0,6.0,62,0.00,,,0.34,Wunderground v.1.15,2013-10-22 19:57:00,
2013-10-22 16:03:00,48.9,36.0,29.86,West,261,1.0,6.0,61,0.00,,,0.34,Wunderground v.1.15,2013-10-22 20:03:00,
2013-10-22 16:09:00,49.2,36.3,29.86,South,187,1.0,6.0,61,0.00,,,0.34,Wunderground v.1.15,2013-10-22 20:09:00,
2013-10-22 16:15:00,49.1,35.8,29.86,West,264,1.0,5.0,60,0.00,,,0.34,Wunderground v.1.15,2013-10-22 20:15:00,
2013-10-22 16:21:00,48.9,35.6,29.86,SW,223,2.0,3.0,60,0.00,,,0.34,Wunderground v.1.15,2013-10-22 20:21:00,
2013-10-22 16:27:00,49.1,35.8,29.86,South,190,1.0,3.0,60,0.00,,,0.34,Wunderground v.1.15,2013-10-22 20:27:00,
2013-10-22 16:33:00,49.1,35.8,29.86,NW,306,1.0,1.0,60,0.00,,,0.34,Wunderground v.1.15,2013-10-22 20:33:00,
2013-10-22 16:38:00,49.0,36.1,29.86,SW,217,1.0,3.0,61,0.00,,,0.34,Wunderground v.1.15,2013-10-22 20:38:00,
2013-10-22 16:43:00,49.0,36.9,29.86,NW,311,1.0,2.0,63,0.00,,,0.34,Wunderground v.1.15,2013-10-22 20:43:00,
2013-10-22 16:48:00,49.1,36.2,29.85,South,171,1.0,5.0,61,0.00,,,0.34,Wunderground v.1.15,2013-10-22 20:48:00,
2013-10-22 16:54:00,49.0,35.7,29.85,WNW,291,1.0,3.0,60,0.00,,,0.34,Wunderground v.1.15,2013-10-22 20:54:00,
2013-10-22 17:00:00,49.1,36.2,29.85,NNE,31,1.0,1.0,61,0.00,,,0.34,Wunderground v.1.15,2013-10-22 21:00:00,
2013-10-22 17:05:00,48.9,35.6,29.85,SSE,164,1.0,4.0,60,0.00,,,0.34,Wunderground v.1.15,2013-10-22 21:05:00,
2013-10-22 17:11:00,48.7,35.4,29.85,WSW,251,1.0,1.0,60,0.00,,,0.34,Wunderground v.1.15,2013-10-22 21:11:00,
2013-10-22 17:17:00,48.3,35.5,29.85,NW,323,1.0,3.0,61,0.00,,,0.34,Wunderground v.1.15,2013-10-22 21:17:00,
2013-10-22 17:22:00,47.9,35.5,29.85,West,273,1.0,3.0,62,0.00,,,0.34,Wunderground v.1.15,2013-10-22 21:22:00,
2013-10-22 17:27:00,47.4,34.6,29.85,South,180,1.0,3.0,61,0.00,,,0.34,Wunderground v.1.15,2013-10-22 21:27:00,
2013-10-22 17:32:00,47.0,34.6,29.85,SW,218,1.0,4.0,62,0.00,,,0.34,Wunderground v.1.15,2013-10-22 21:32:00,
2013-10-22 17:38:00,46.8,34.9,29.85,SW,215,1.0,4.0,63,0.00,,,0.34,Wunderground v.1.15,2013-10-22 21:38:00,
2013-10-22 17:44:00,46.5,35.4,29.85,SSW,206,1.0,4.0,65,0.00,,,0.34,Wunderground v.1.15,2013-10-22 21:44:00,
2013-10-22 17:50:00,46.3,35.6,29.85,SW,217,1.0,1.0,66,0.00,,,0.34,Wunderground v.1.15,2013-10-22 21:50:00,
2013-10-22 17:56:00,46.1,35.4,29.85,SW,229,0.0,1.0,66,0.00,,,0.34,Wunderground v.1.15,2013-10-22 21:56:00,
2013-10-22 18:02:00,45.8,35.5,29.85,SW,229,0.0,0.0,67,0.00,,,0.34,Wunderground v.1.15,2013-10-22 22:02:00,
2013-10-22 18:08:00,45.5,35.2,29.85,SW,229,0.0,0.0,67,0.00,,,0.34,Wunderground v.1.15,2013-10-22 22:08:00,
2013-10-22 18:14:00,45.3,35.4,29.85,West,272,0.0,1.0,68,0.00,,,0.34,Wunderground v.1.15,2013-10-22 22:14:00,
2013-10-22 18:19:00,45.0,35.1,29.85,West,272,0.0,1.0,68,0.00,,,0.34,Wunderground v.1.15,2013-10-22 22:19:00,
2013-10-22 18:25:00,44.7,35.1,29.85,West,272,0.0,0.0,69,0.00,,,0.34,Wunderground v.1.15,2013-10-22 22:25:00,
2013-10-22 18:31:00,44.3,35.1,29.85,West,272,0.0,0.0,70,0.00,,,0.34,Wunderground v.1.15,2013-10-22 22:31:00,
2013-10-22 18:37:00,44.0,35.2,29.85,SW,232,0.0,0.0,71,0.00,,,0.34,Wunderground v.1.15,2013-10-22 22:37:00,
2013-10-22 18:43:00,43.6,35.5,29.85,SW,232,0.0,0.0,73,0.00,,,0.34,Wunderground v.1.15,2013-10-22 22:43:00,
2013-10-22 18:48:00,43.4,35.3,29.85,SW,232,0.0,0.0,73,0.00,,,0.34,Wunderground v.1.15,2013-10-22 22:48:00,
2013-10-22 18:54:00,43.1,35.4,29.85,SSE,148,0.0,0.0,74,0.00,,,0.34,Wunderground v.1.15,2013-10-22 22:54:00,
2013-10-22 19:00:00,42.8,35.4,29.85,SSE,148,0.0,0.0,75,0.00,,,0.34,Wunderground v.1.15,2013-10-22 23:00:00,
2013-10-22 19:06:00,42.5,35.1,29.86,SE,141,0.0,0.0,75,0.00,,,0.34,Wunderground v.1.15,2013-10-22 23:06:00,
2013-10-22 19:12:00,42.4,35.0,29.86,WSW,242,0.0,3.0,75,0.00,,,0.34,Wunderground v.1.15,2013-10-22 23:12:00,
2013-10-22 19:18:00,42.2,34.8,29.86,SE,135,0.0,3.0,75,0.00,,,0.34,Wunderground v.1.15,2013-10-22 23:18:00,
2013-10-22 19:24:00,42.2,34.8,29.86,SSW,207,0.0,2.0,75,0.00,,,0.34,Wunderground v.1.15,2013-10-22 23:24:00,
2013-10-22 19:30:00,42.1,34.7,29.86,SSW,208,0.0,0.0,75,0.00,,,0.34,Wunderground v.1.15,2013-10-22 23:30:00,
2013-10-22 19:36:00,41.9,34.6,29.86,SW,219,0.0,0.0,75,0.00,,,0.34,Wunderground v.1.15,2013-10-22 23:36:00,
2013-10-22 19:41:00,41.9,34.6,29.86,South,173,0.0,1.0,75,0.00,,,0.34,Wunderground v.1.15,2013-10-22 23:41:00,
2013-10-22 19:47:00,41.8,34.5,29.86,SW,215,0.0,1.0,75,0.00,,,0.34,Wunderground v.1.15,2013-10-22 23:47:00,
2013-10-22 19:53:00,41.8,34.5,29.86,SSE,161,0.0,0.0,75,0.00,,,0.34,Wunderground v.1.15,2013-10-22 23:53:00,
2013-10-22 19:59:00,41.8,34.8,29.86,SE,144,0.0,1.0,76,0.00,,,0.34,Wunderground v.1.15,2013-10-22 23:59:00,
2013-10-22 20:05:00,41.8,34.5,29.86,SW,236,0.0,0.0,75,0.00,,,0.34,Wunderground v.1.15,2013-10-23 00:05:00,
2013-10-22 20:11:00,41.8,34.5,29.86,SE,127,0.0,0.0,75,0.00,,,0.34,Wunderground v.1.15,2013-10-23 00:11:00,
2013-10-22 20:16:00,41.8,34.5,29.86,SSE,156,0.0,0.0,75,0.00,,,0.34,Wunderground v.1.15,2013-10-23 00:16:00,
2013-10-22 20:22:00,41.8,34.5,29.86,South,186,0.0,3.0,75,0.00,,,0.34,Wunderground v.1.15,2013-10-23 00:22:00,
2013-10-22 20:28:00,41.7,34.4,29.86,South,174,0.0,3.0,75,0.00,,,0.34,Wunderground v.1.15,2013-10-23 00:28:00,
2013-10-22 20:33:00,41.8,34.5,29.86,SW,226,1.0,2.0,75,0.00,,,0.34,Wunderground v.1.15,2013-10-23 00:33:00,
2013-10-22 20:39:00,41.8,34.5,29.86,SW,226,1.0,2.0,75,0.00,,,0.34,Wunderground v.1.15,2013-10-23 00:39:00,
2013-10-22 20:45:00,41.8,34.5,29.86,SW,226,0.0,2.0,75,0.00,,,0.34,Wunderground v.1.15,2013-10-23 00:45:00,
2013-10-22 20:51:00,41.6,34.3,29.86,SW,226,0.0,0.0,75,0.00,,,0.34,Wunderground v.1.15,2013-10-23 00:51:00,
2013-10-22 20:57:00,41.4,34.4,29.86,SW,226,0.0,1.0,76,0.00,,,0.34,Wunderground v.1.15,2013-10-23 00:57:00,
2013-10-22 21:03:00,41.3,34.3,29.86,SW,226,0.0,1.0,76,0.00,,,0.34,Wunderground v.1.15,2013-10-23 01:03:00,
2013-10-22 21:09:00,41.3,34.3,29.86,SW,216,0.0,1.0,76,0.00,,,0.34,Wunderground v.1.15,2013-10-23 01:09:00,
2013-10-22 21:15:00,41.4,34.7,29.86,SSW,212,0.0,1.0,77,0.00,,,0.34,Wunderground v.1.15,2013-10-23 01:15:00,
2013-10-22 21:21:00,41.3,34.3,29.86,SSW,212,0.0,0.0,76,0.00,,,0.34,Wunderground v.1.15,2013-10-23 01:21:00,
2013-10-22 21:27:00,41.4,34.4,29.86,SSW,209,0.0,1.0,76,0.00,,,0.34,Wunderground v.1.15,2013-10-23 01:27:00,
2013-10-22 21:32:00,41.5,34.2,29.86,SSW,209,0.0,0.0,75,0.00,,,0.34,Wunderground v.1.15,2013-10-23 01:32:00,
2013-10-22 21:38:00,41.5,34.2,29.86,SSW,209,0.0,0.0,75,0.00,,,0.34,Wunderground v.1.15,2013-10-23 01:38:00,
2013-10-22 21:44:00,41.3,34.0,29.86,SSW,209,0.0,0.0,75,0.00,,,0.34,Wunderground v.1.15,2013-10-23 01:44:00,
2013-10-22 21:50:00,41.1,34.1,29.86,SSW,209,0.0,0.0,76,0.00,,,0.34,Wunderground v.1.15,2013-10-23 01:50:00,
2013-10-22 21:56:00,40.9,33.9,29.86,SSW,209,0.0,0.0,76,0.00,,,0.34,Wunderground v.1.15,2013-10-23 01:56:00,
2013-10-22 22:01:00,40.7,33.7,29.86,SSW,209,0.0,0.0,76,0.00,,,0.34,Wunderground v.1.15,2013-10-23 02:01:00,
2013-10-22 22:07:00,40.7,34.0,29.86,SSW,209,0.0,0.0,77,0.00,,,0.34,Wunderground v.1.15,2013-10-23 02:07:00,
2013-10-22 22:13:00,40.7,34.0,29.86,SSW,209,0.0,0.0,77,0.00,,,0.34,Wunderground v.1.15,2013-10-23 02:13:00,
2013-10-22 22:19:00,40.7,33.7,29.86,SSW,209,0.0,0.0,76,0.00,,,0.34,Wunderground v.1.15,2013-10-23 02:19:00,
2013-10-22 22:25:00,40.8,33.5,29.86,SSW,209,0.0,1.0,75,0.00,,,0.34,Wunderground v.1.15,2013-10-23 02:25:00,
2013-10-22 22:31:00,40.9,34.2,29.86,SSW,209,0.0,0.0,77,0.00,,,0.34,Wunderground v.1.15,2013-10-23 02:31:00,
2013-10-22 22:37:00,40.8,33.8,29.86,SSW,209,0.0,0.0,76,0.00,,,0.34,Wunderground v.1.15,2013-10-23 02:37:00,
2013-10-22 22:43:00,40.7,34.4,29.86,SSW,209,0.0,0.0,78,0.00,,,0.34,Wunderground v.1.15,2013-10-23 02:43:00,
2013-10-22 22:49:00,40.7,34.4,29.86,SSW,209,0.0,0.0,78,0.00,,,0.34,Wunderground v.1.15,2013-10-23 02:49:00,
2013-10-22 22:54:00,40.6,34.0,29.86,SSW,209,0.0,0.0,77,0.00,,,0.34,Wunderground v.1.15,2013-10-23 02:54:00,
2013-10-22 23:00:00,40.4,33.4,29.86,SSW,209,0.0,0.0,76,0.00,,,0.34,Wunderground v.1.15,2013-10-23 03:00:00,
2013-10-22 23:06:00,40.2,32.9,29.86,SSW,209,0.0,0.0,75,0.00,,,0.34,Wunderground v.1.15,2013-10-23 03:06:00,
2013-10-22 23:12:00,40.1,33.1,29.85,SSW,209,0.0,0.0,76,0.00,,,0.34,Wunderground v.1.15,2013-10-23 03:12:00,
2013-10-22 23:17:00,39.9,32.9,29.86,SSW,209,0.0,0.0,76,0.00,,,0.34,Wunderground v.1.15,2013-10-23 03:17:00,
2013-10-22 23:23:00,39.8,33.5,29.85,SSW,209,0.0,0.0,78,0.00,,,0.34,Wunderground v.1.15,2013-10-23 03:23:00,
2013-10-22 23:29:00,39.8,33.8,29.85,SSW,209,0.0,0.0,79,0.00,,,0.34,Wunderground v.1.15,2013-10-23 03:29:00,
2013-10-22 23:35:00,39.7,33.4,29.85,SSW,209,0.0,0.0,78,0.00,,,0.34,Wunderground v.1.15,2013-10-23 03:35:00,
2013-10-22 23:41:00,39.7,33.7,29.85,SSW,209,0.0,0.0,79,0.00,,,0.34,Wunderground v.1.15,2013-10-23 03:41:00,
2013-10-22 23:47:00,39.7,33.7,29.85,SSW,209,0.0,0.0,79,0.00,,,0.34,Wunderground v.1.15,2013-10-23 03:47:00,
2013-10-22 23:53:00,39.8,32.8,29.85,SSW,209,0.0,0.0,76,0.00,,,0.34,Wunderground v.1.15,2013-10-23 03:53:00,
2013-10-22 23:59:00,39.9,33.6,29.84,SSW,209,0.0,0.0,78,0.00,,,0.34,Wunderground v.1.15,2013-10-23 03:59:00,